Regional Weather Roundup
Issued by NWS

Home | Current Version | Previous Version | Graphics & Text | Print | Product List | Glossary On
Versions: 1 2 3 4 5 6 7 8 9 10 11 12 13 14 15 16 17 18 19 20 21 22 23 24 25 26 27 28 29 30 31 32 33 34 35 36 37 38 39 40 41 42 43 44 45 46 47 48 49 50
000
ASUS43 KLMK 300702
RWRKY
KENTUCKY REGIONAL WEATHER ROUNDUP
NATIONAL WEATHER SERVICE LOUISVILLE KY
300 AM EDT TUE JUN 30 2015

NOTE "FAIR" INDICATES FEW OR NO CLOUDS BELOW 12,000 FEET
WITH NO SIGNIFICANT WEATHER AND/OR OBSTRUCTIONS TO VISIBILITY.

KYZ001>023-026-027-061>063-070>075-300800-
WESTERN AND SOUTH CENTRAL KENTUCKY

CITY           SKY/WX    TMP DP  RH WIND       PRES   REMARKS
PADUCAH        PTCLDY    73  66  78 CALM      29.88F
HENDERSON      MOCLDY    64  63  94 SW3       29.86F
OWENSBORO      CLEAR     67  65  93 W5        29.88S
HOPKINSVILLE   PTCLDY    70  67  92 W6        29.88F
BOWLING GREEN  CLEAR     70  67  90 SW3       29.89F
GLASGOW        NOT AVBL
$$

KYZ024-025-028>034-038-045-046-053-300800-
NORTH CENTRAL KENTUCKY

CITY           SKY/WX    TMP DP  RH WIND       PRES   REMARKS
LOUISVILLE/SDF PTCLDY    71  63  75 CALM      29.85F
LOUISVILLE/LOU CLEAR     69  63  81 S3        29.87S
FORT KNOX      CLEAR     65  62  92 CALM      29.86F
$$

KYZ035>037-039>044-047>052-055>060-089>105-300800-
NORTHEAST KENTUCKY

CITY           SKY/WX    TMP DP  RH WIND       PRES   REMARKS
LEXINGTON      PTCLDY    66  65  96 SW7       29.88F
COVINGTON      CLEAR     66  64  93 SW5       29.84S
FRANKFORT      CLEAR     65  63  93 SW6       29.86F
$$

KYZ054-064>069-076>088-106>120-300800-
SOUTHEAST KENTUCKY

CITY           SKY/WX    TMP DP  RH WIND       PRES   REMARKS
JACKSON        CLOUDY    66  63  90 CALM      29.91S
LONDON         CLOUDY    67  61  81 SW3       29.93S
SOMERSET       NOT AVBL
MIDDLESBORO    CLOUDY    66  66 100 NE3       29.95R
MONTICELLO     PTSUNNY   67  67 100 CALM      29.94F
$$




USA.gov is the U.S. government's official web portal to all federal, state and local government web resources and services.